EW3808 Weather Reports


time (UTC)temp
C
wind
direction
speed
KPH
gust
KPH
rain 1hr
cm
rain 24hr
cm
rain mn
cm
humidity
%
barometer
mb
20260906232954 17 121 6.4 29.0 0.00 0.00 0.00 43 1019.7
20260906231943 18 124 3.2 29.0 0.00 0.00 0.00 43 1020.1
20260906230929 18 179 1.6 14.5 0.00 0.00 0.00 42 1020.4
20260906225930 18 178 0.0 0.0 0.00 0.00 0.00 41 1020.3
20260906224929 18 171 0.0 0.0 0.00 0.00 0.00 41 1020.5
20260906222840 19 211 0.0 0.0 0.00 0.00 0.00 43 1020.7
20260906221824 19 184 1.6 14.5 0.00 0.00 0.00 39 1020.5
20260906220752 19 186 0.0 9.7 0.00 0.00 0.00 37 1020.5
20260906215811 19 227 0.0 0.0 0.00 0.00 0.00 37 1020.5
20260906214815 19 163 3.2 16.1 0.00 0.00 0.00 37 1020.5
20260906213826 20 165 0.0 4.8 0.00 0.00 0.00 38 1020.9
20260906212809 20 197 0.0 0.0 0.00 0.00 0.00 36 1020.6
20260906211800 20 198 0.0 1.6 0.00 0.00 0.00 38 1020.7
20260906210813 20 272 3.2 19.3 0.00 0.00 0.00 35 1020.7
20260906205741 20 274 6.4 20.9 0.00 0.00 0.00 34 1020.7
20260906204748 20 130 1.6 20.9 0.00 0.00 0.00 33 1020.8
20260906203714 20 150 1.6 17.7 0.00 0.00 0.00 36 1021.0
20260906202655 20 174 1.6 0.0 0.00 0.00 0.00 33 1021.1
20260906201640 20 215 3.2 0.0 0.00 0.00 0.00 36 1020.9
20260906200656 19 120 4.8 32.2 0.00 0.00 0.00 35 1021.2
20260906195717 20 154 1.6 25.7 0.00 0.00 0.00 34 1021.3
20260906194718 20 220 1.6 16.1 0.00 0.00 0.00 33 1021.4
20260906193718 20 154 3.2 0.0 0.00 0.00 0.00 37 1021.7
20260906192708 19 168 4.8 40.2 0.00 0.00 0.00 33 1021.6
20260906191649 20 275 4.8 24.1 0.00 0.00 0.00 31 1021.7
20260906190624 20 232 3.2 24.1 0.00 0.00 0.00 34 1021.8
20260906185628 19 296 3.2 20.9 0.00 0.00 0.00 34 1021.8
20260906184631 19 165 0.0 0.0 0.00 0.00 0.00 33 1022.2
20260906183615 20 165 3.2 17.7 0.00 0.00 0.00 32 1021.8
20260906182634 19 137 0.0 14.5 0.00 0.00 0.00 34 1022.1
20260906181610 19 173 6.4 24.1 0.00 0.00 0.00 32 1022.4
20260906180603 19 84 3.2 20.9 0.00 0.00 0.00 31 1022.4
20260906175621 19 176 1.6 0.0 0.00 0.00 0.00 31 1022.5
20260906174624 18 141 0.0 12.9 0.00 0.00 0.00 31 1022.2
20260906173612 18 191 0.0 0.0 0.00 0.00 0.00 34 1022.5
20260906172546 18 127 4.8 0.0 0.00 0.00 0.00 32 1022.8
20260906165329 19 162 4.8 24.1 0.00 0.00 0.00 34 1022.6
20260906163217 18 120 3.2 14.5 0.00 0.00 0.00 39 1022.8
20260906162202 18 231 3.2 20.9 0.00 0.00 0.00 38 1023.0
20260906161143 18 175 6.4 20.9 0.00 0.00 0.00 37 1023.0
20260906160128 18 200 3.2 14.5 0.00 0.00 0.00 38 1023.1
20260906155142 18 231 1.6 12.9 0.00 0.00 0.00 37 1023.1
20260906154155 18 107 3.2 12.9 0.00 0.00 0.00 40 1023.2
20260906153128 17 165 1.6 12.9 0.00 0.00 0.00 39 1023.4
20260906152132 17 123 1.6 11.3 0.00 0.00 0.00 43 1023.5
20260906151100 16 95 3.2 11.3 0.00 0.00 0.00 46 1023.6
20260906150054 14 139 0.0 9.7 0.00 0.00 0.00 49 1023.5
20260906140527 7 164 8.0 14.5 0.00 0.00 0.00 67 1023.6
20260906135511 7 158 9.7 14.5 0.00 0.00 0.00 67 1023.5
20260906134513 7 145 8.0 14.5 0.00 0.00 0.00 66 1023.5
20260906132409 7 153 9.7 14.5 0.00 0.00 0.00 65 1023.2
20260906131356 7 136 8.0 14.5 0.00 0.00 0.00 66 1023.2
20260906130417 7 139 8.0 12.9 0.00 0.00 0.00 66 1023.1
20260906125352 7 150 4.8 12.9 0.00 0.00 0.00 65 1023.2
20260906124401 7 138 6.4 12.9 0.00 0.00 0.00 65 1023.1
20260906123344 7 130 4.8 0.0 0.00 0.00 0.00 65 1023.2
20260906121258 7 144 6.4 12.9 0.00 0.00 0.00 64 1023.3
20260906115204 7 139 4.8 0.0 0.00 0.00 0.00 63 1023.2
20260906111953 8 163 4.8 11.3 0.00 0.00 0.00 63 1023.4
20260906111004 8 185 1.6 8.0 0.00 0.00 0.00 62 1023.5
20260906105948 8 169 3.2 14.5 0.00 0.00 0.00 62 1023.4
20260906104947 7 165 1.6 0.0 0.00 0.00 0.00 63 1023.4
20260906103940 8 137 0.0 0.0 0.00 0.00 0.00 61 1023.3
20260906102932 8 162 1.6 12.9 0.00 0.00 0.00 62 1023.4
20260906101921 8 149 1.6 0.0 0.00 0.00 0.00 59 1023.4
20260906100919 8 159 4.8 11.3 0.00 0.00 0.00 59 1023.3
20260906095918 8 157 4.8 12.9 0.00 0.00 0.00 58 1023.3
20260906094921 8 140 0.0 12.9 0.00 0.00 0.00 57 1023.2
20260906092725 8 151 4.8 0.0 0.00 0.00 0.00 57 1023.2
20260906091748 8 126 4.8 12.9 0.00 0.00 0.00 57 1023.3
20260906090721 8 139 1.6 12.9 0.00 0.00 0.00 57 1023.2
20260906085737 8 155 0.0 0.0 0.00 0.00 0.00 56 1023.2
20260906084723 9 149 4.8 0.0 0.00 0.00 0.00 56 1023.2
20260906083718 9 161 6.4 14.5 0.00 0.00 0.00 55 1023.1
20260906082729 9 175 3.2 14.5 0.00 0.00 0.00 55 1023.1
20260906081732 9 140 1.6 14.5 0.00 0.00 0.00 55 1023.2
20260906080729 9 167 0.0 0.0 0.00 0.00 0.00 54 1023.1
20260906075740 8 186 0.0 0.0 0.00 0.00 0.00 59 1023.2
20260906074743 8 152 0.0 0.0 0.00 0.00 0.00 56 1023.1
20260906071459 9 153 0.0 8.0 0.00 0.00 0.00 55 1023.2
20260906070430 9 154 1.6 16.1 0.00 0.00 0.00 54 1023.1
20260906065409 9 126 6.4 14.5 0.00 0.00 0.00 53 1023.0
20260906063257 9 150 1.6 0.0 0.00 0.00 0.00 53 1023.0
20260906062258 10 139 3.2 0.0 0.00 0.00 0.00 53 1022.8
20260906060223 10 160 6.4 16.1 0.00 0.00 0.00 51 1022.7
20260906055203 10 150 8.0 16.1 0.00 0.00 0.00 51 1022.7
20260906054156 10 142 1.6 16.1 0.00 0.00 0.00 51 1022.7
20260906053216 10 137 4.8 12.9 0.00 0.00 0.00 51 1022.7
20260906052208 10 154 4.8 0.0 0.00 0.00 0.00 51 1022.7
20260906051207 10 133 0.0 12.9 0.00 0.00 0.00 51 1022.8
20260906045038 10 118 6.4 14.5 0.00 0.00 0.00 50 1022.8
20260906044057 11 138 4.8 14.5 0.00 0.00 0.00 49 1022.9
20260906043119 11 149 4.8 12.9 0.00 0.00 0.00 49 1022.9
20260906042124 11 140 0.0 11.3 0.00 0.00 0.00 47 1022.8
20260906041133 11 153 4.8 12.9 0.00 0.00 0.00 46 1022.7
20260906040100 11 134 0.0 12.9 0.00 0.00 0.00 46 1022.7
20260906034003 11 125 0.0 12.9 0.00 0.00 0.00 45 1022.5
20260906033014 12 133 1.6 0.0 0.00 0.00 0.00 46 1022.3
20260906032005 12 142 3.2 11.3 0.00 0.00 0.00 45 1022.1
20260906031021 12 138 0.0 0.0 0.00 0.00 0.00 45 1022.0
20260906024916 13 143 0.0 0.0 0.00 0.00 0.00 42 1021.8
20260906023857 13 154 0.0 0.0 0.00 0.00 0.00 42 1021.5
20260906022914 13 152 0.0 0.0 0.00 0.00 0.00 41 1021.3
20260906020809 15 147 0.0 0.0 0.00 0.00 0.00 38 1021.0
20260906015831 16 155 0.0 0.0 0.00 0.00 0.00 37 1021.0
20260906014805 16 159 0.0 0.0 0.00 0.00 0.00 35 1021.1
20260906013753 17 161 0.0 0.0 0.00 0.00 0.00 33 1021.2
20260906012749 17 159 0.0 0.0 0.00 0.00 0.00 32 1021.1
20260906011721 18 157 0.0 0.0 0.00 0.00 0.00 30 1021.2
20260906010648 19 155 0.0 0.0 0.00 0.00 0.00 26 1021.1
20260906005620 19 148 0.0 0.0 0.00 0.00 0.00 26 1021.1
20260906004558 20 251 0.0 8.0 0.00 0.00 0.00 25 1021.1
20260906003559 20 261 0.0 3.2 0.00 0.00 0.00 22 1021.0
20260906002611 20 259 3.2 20.9 0.00 0.00 0.00 22 1021.0
20260906001603 21 190 0.0 9.7 0.00 0.00 0.00 22 1020.9
20260906000559 21 218 4.8 6.4 0.00 0.00 0.00 20 1020.9
20260905235611 22 177 4.8 17.7 0.00 0.00 0.00 20 1020.8